When you browse on this site, cookies collect data to enhance your experience and personalize the content and advertising you see.
Visit our Privacy Policy to learn more. By continuing to use the site, you agree to this use of cookies and data.
  • In Hungary
  • List of Countries
  • For 7 days
  • Water Temperature
  • Satellite Maps
  • Weather Map
  • News
  • Weather Widgets
  • user-avatar
    Login

    Hourly Weather Karszynek

    Today, 20 May, Monday

    Time Temperature Precipitation Wind Pressure Humidity
    00:00 +15°C° 0 mm 2 mps 747 mmHg 93%
    01:00 +15°C° 0 mm 2 mps 747 mmHg 94%
    02:00 +15°C° 0 mm 2 mps 747 mmHg 94%
    03:00 +14°C° 0 mm 2 mps 747 mmHg 95%
    04:00 +14°C° 0 mm 2 mps 747 mmHg 95%
    05:00 +15°C° 0 mm 2 mps 747 mmHg 92%
    06:00 +17°C° 0 mm 2 mps 747 mmHg 88%
    07:00 +18°C° 0 mm 2 mps 746 mmHg 84%
    08:00 +19°C° 0 mm 3 mps 746 mmHg 81%
    09:00 +20°C° 0 mm 3 mps 746 mmHg 77%
    10:00 +22°C° 0 mm 4 mps 746 mmHg 74%
    11:00 +22°C° 1 mm 4 mps 746 mmHg 73%
    12:00 +23°C° 1 mm 5 mps 746 mmHg 73%
    13:00 +23°C° 1 mm 6 mps 745 mmHg 73%
    14:00 +23°C° 0.2 mm 6 mps 745 mmHg 69%
    15:00 +23°C° 0.2 mm 5 mps 745 mmHg 66%
    16:00 +23°C° 0.2 mm 5 mps 745 mmHg 62%
    17:00 +22°C° 0 mm 4 mps 745 mmHg 66%
    18:00 +21°C° 0 mm 3 mps 745 mmHg 70%
    19:00 +20°C° 0 mm 2 mps 745 mmHg 75%
    20:00 +19°C° 0 mm 2 mps 745 mmHg 78%
    21:00 +17°C° 0 mm 2 mps 746 mmHg 82%
    22:00 +16°C° 0 mm 2 mps 746 mmHg 85%
    23:00 +15°C° 0 mm 2 mps 746 mmHg 86%

    Tomorrow, 21 May, Tuesday

    Time Temperature Precipitation Wind Pressure Humidity
    00:00 +15°C° 0 mm 2 mps 746 mmHg 88%
    01:00 +14°C° 0 mm 1 mps 746 mmHg 89%
    02:00 +14°C° 0 mm 1 mps 746 mmHg 90%
    03:00 +14°C° 0 mm 1 mps 747 mmHg 91%
    04:00 +13°C° 0 mm 1 mps 747 mmHg 92%
    05:00 +15°C° 0 mm 1 mps 747 mmHg 87%
    06:00 +16°C° 0 mm 1 mps 747 mmHg 82%
    07:00 +18°C° 0 mm 1 mps 747 mmHg 77%
    08:00 +20°C° 0 mm 1 mps 747 mmHg 70%
    09:00 +21°C° 0 mm 1 mps 747 mmHg 64%
    10:00 +23°C° 0 mm 1 mps 747 mmHg 57%
    11:00 +24°C° 0 mm 1 mps 747 mmHg 53%
    12:00 +25°C° 0 mm 1 mps 747 mmHg 50%
    13:00 +26°C° 0 mm 1 mps 747 mmHg 46%
    14:00 +24°C° 0.3 mm 2 mps 747 mmHg 56%
    15:00 +22°C° 0.3 mm 3 mps 746 mmHg 65%
    16:00 +20°C° 0.3 mm 4 mps 746 mmHg 75%
    17:00 +19°C° 0.2 mm 3 mps 746 mmHg 79%
    18:00 +18°C° 0.2 mm 2 mps 746 mmHg 83%
    19:00 +17°C° 0.2 mm 2 mps 746 mmHg 87%
    20:00 +17°C° 0 mm 2 mps 747 mmHg 87%
    21:00 +16°C° 0 mm 2 mps 747 mmHg 88%
    22:00 +16°C° 0 mm 2 mps 747 mmHg 88%
    23:00 +16°C° 0 mm 2 mps 747 mmHg 91%

    Day after tomorrow, 22 May, Wednesday

    Time Temperature Precipitation Wind Pressure Humidity
    00:00 +14°C° 0 mm 3 mps 747 mmHg 93%
    01:00 +14°C° 0 mm 3 mps 747 mmHg 95%
    02:00 +14°C° 0.3 mm 4 mps 747 mmHg 95%
    03:00 +14°C° 0.3 mm 4 mps 747 mmHg 95%
    04:00 +14°C° 0.3 mm 5 mps 747 mmHg 95%
    05:00 +14°C° 0.3 mm 5 mps 747 mmHg 94%
    06:00 +14°C° 0.3 mm 5 mps 747 mmHg 93%
    07:00 +15°C° 0.3 mm 5 mps 748 mmHg 92%
    08:00 +15°C° 0.2 mm 5 mps 748 mmHg 92%
    09:00 +15°C° 0.2 mm 5 mps 748 mmHg 92%
    10:00 +15°C° 0.2 mm 5 mps 749 mmHg 92%
    11:00 +15°C° 0.3 mm 5 mps 749 mmHg 92%
    12:00 +15°C° 0.3 mm 5 mps 749 mmHg 92%
    13:00 +15°C° 0.3 mm 6 mps 750 mmHg 93%
    14:00 +15°C° 0.2 mm 6 mps 750 mmHg 92%
    15:00 +14°C° 0.2 mm 6 mps 750 mmHg 92%
    16:00 +14°C° 0.2 mm 7 mps 750 mmHg 92%
    17:00 +14°C° 0.1 mm 7 mps 751 mmHg 91%
    18:00 +14°C° 0.1 mm 7 mps 751 mmHg 91%
    19:00 +12°C° 0.1 mm 7 mps 752 mmHg 90%
    20:00 +12°C° 0 mm 7 mps 752 mmHg 90%
    21:00 +12°C° 0 mm 7 mps 753 mmHg 90%
    22:00 +12°C° 0 mm 7 mps 753 mmHg 89%
    23:00 +11°C° 0.2 mm 7 mps 754 mmHg 90%

    23 May, Thursday

    Time Temperature Precipitation Wind Pressure Humidity
    00:00 +11°C° 0.2 mm 7 mps 754 mmHg 90%
    01:00 +11°C° 0.2 mm 7 mps 754 mmHg 90%
    02:00 +10°C° 0.2 mm 6 mps 755 mmHg 90%
    03:00 +9°C° 0.2 mm 6 mps 755 mmHg 90%
    04:00 +9°C° 0.2 mm 6 mps 756 mmHg 90%
    05:00 +9°C° 0 mm 6 mps 756 mmHg 88%
    06:00 +9°C° 0 mm 6 mps 757 mmHg 87%
    07:00 +8°C° 0 mm 6 mps 757 mmHg 85%
    08:00 +10°C° 0 mm 6 mps 757 mmHg 77%
    09:00 +13°C° 0 mm 6 mps 758 mmHg 68%
    10:00 +14°C° 0 mm 6 mps 758 mmHg 59%
    11:00 +15°C° 0 mm 6 mps 758 mmHg 54%
    12:00 +17°C° 0 mm 5 mps 758 mmHg 50%
    13:00 +19°C° 0 mm 5 mps 758 mmHg 46%
    14:00 +19°C° 0 mm 5 mps 757 mmHg 46%
    15:00 +19°C° 0 mm 5 mps 757 mmHg 46%
    16:00 +19°C° 0 mm 5 mps 757 mmHg 47%
    17:00 +17°C° 0 mm 4 mps 757 mmHg 53%
    18:00 +16°C° 0 mm 3 mps 757 mmHg 59%
    19:00 +15°C° 0 mm 2 mps 757 mmHg 65%
    20:00 +13°C° 0 mm 2 mps 757 mmHg 68%
    21:00 +12°C° 0 mm 1 mps 757 mmHg 72%
    22:00 +10°C° 0 mm 1 mps 757 mmHg 75%
    23:00 +10°C° 0 mm 1 mps 757 mmHg 77%

    24 May, Friday

    Time Temperature Precipitation Wind Pressure Humidity
    00:00 +8°C° 0 mm 0 mps 757 mmHg 79%
    01:00 +8°C° 0 mm 0 mps 757 mmHg 81%
    02:00 +7°C° 0 mm 0 mps 757 mmHg 82%
    03:00 +8°C° 0 mm 1 mps 756 mmHg 83%
    04:00 +8°C° 0 mm 1 mps 756 mmHg 84%
    05:00 +10°C° 0 mm 1 mps 756 mmHg 78%
    06:00 +12°C° 0 mm 1 mps 756 mmHg 73%
    07:00 +13°C° 0 mm 1 mps 756 mmHg 67%
    08:00 +15°C° 0 mm 1 mps 755 mmHg 62%
    09:00 +18°C° 0 mm 1 mps 755 mmHg 56%
    10:00 +18°C° 0 mm 2 mps 754 mmHg 51%
    11:00 +19°C° 0 mm 2 mps 754 mmHg 48%
    12:00 +20°C° 0 mm 2 mps 753 mmHg 46%
    13:00 +21°C° 0 mm 2 mps 753 mmHg 43%
    14:00 +21°C° 0 mm 2 mps 752 mmHg 44%
    15:00 +21°C° 0 mm 2 mps 751 mmHg 45%
    16:00 +21°C° 0 mm 3 mps 751 mmHg 46%
    17:00 +20°C° 0 mm 3 mps 751 mmHg 53%
    18:00 +19°C° 0 mm 3 mps 750 mmHg 60%
    19:00 +17°C° 0 mm 3 mps 750 mmHg 67%
    20:00 +16°C° 0 mm 3 mps 750 mmHg 68%
    21:00 +14°C° 0 mm 3 mps 750 mmHg 70%
    22:00 +13°C° 0 mm 3 mps 750 mmHg 71%
    23:00 +12°C° 0 mm 3 mps 750 mmHg 72%

    25 May, Saturday

    Time Temperature Precipitation Wind Pressure Humidity
    00:00 +12°C° 0 mm 3 mps 750 mmHg 74%
    01:00 +11°C° 0 mm 3 mps 750 mmHg 75%
    02:00 +12°C° 0 mm 2 mps 750 mmHg 76%
    03:00 +12°C° 0 mm 2 mps 750 mmHg 77%
    04:00 +10°C° 0 mm 2 mps 750 mmHg 78%
    05:00 +13°C° 0 mm 2 mps 750 mmHg 76%
    06:00 +14°C° 0 mm 1 mps 750 mmHg 74%
    07:00 +16°C° 0 mm 1 mps 750 mmHg 72%
    08:00 +19°C° 0 mm 1 mps 750 mmHg 67%
    09:00 +21°C° 0 mm 1 mps 750 mmHg 62%
    10:00 +22°C° 0 mm 1 mps 750 mmHg 58%
    11:00 +23°C° 0.4 mm 2 mps 750 mmHg 59%
    12:00 +23°C° 0.4 mm 2 mps 750 mmHg 60%
    13:00 +23°C° 0.4 mm 2 mps 750 mmHg 62%
    14:00 +23°C° 0.8 mm 2 mps 750 mmHg 63%
    15:00 +23°C° 0.8 mm 2 mps 750 mmHg 65%
    16:00 +23°C° 0.8 mm 2 mps 750 mmHg 66%
    17:00 +21°C° 0.4 mm 2 mps 750 mmHg 70%
    18:00 +20°C° 0.4 mm 2 mps 750 mmHg 74%
    19:00 +20°C° 0.4 mm 1 mps 750 mmHg 78%
    20:00 +18°C° 0 mm 1 mps 751 mmHg 82%
    21:00 +16°C° 0 mm 1 mps 751 mmHg 85%
    22:00 +15°C° 0 mm 1 mps 752 mmHg 89%
    23:00 +14°C° 0 mm 2 mps 752 mmHg 91%
    Show more